{"data":{"norad_id":64123,"epoch":"2026-09-20T22:35:59.124192Z","epoch_age_seconds":102274,"freshness":"FRESH","line1":"1 64123U 25111A   26263.94165653  .00131522  00000+0  10084-2 0  9992","line2":"2 64123  42.9992 237.2542 0001209 251.7294 108.3442 15.70932148 77343","mean_motion":15.70932148,"eccentricity":0.0001209,"inclination_deg":42.9992,"raan_deg":237.2542,"arg_perigee_deg":251.7294,"mean_anomaly_deg":108.3442,"bstar":0.0010084,"rev_number":7734,"period_min":91.66532124467,"perigee_km":355.41751303755,"apogee_km":357.04588338878,"semimajor_km":6734.3686982132,"source":"CELESTRAK","updated_at":"2026-09-21T09:00:35.232286Z"}}